{"data":{"norad_id":66383,"epoch":"2026-05-25T04:56:08.921184Z","epoch_age_seconds":58058,"freshness":"FRESH","line1":"1 66383U 25257D   26145.20565881  .00023686  00000+0  70973-3 0  9993","line2":"2 66383  53.1586 220.5401 0001430  86.4061 273.7106 15.34408662 31462","mean_motion":15.34408662,"eccentricity":0.000143,"inclination_deg":53.1586,"raan_deg":220.5401,"arg_perigee_deg":86.4061,"mean_anomaly_deg":273.7106,"bstar":0.00070973,"rev_number":3146,"period_min":93.847228294648,"perigee_km":461.69925856599,"apogee_km":463.65573151158,"semimajor_km":6840.8144950388,"source":"CELESTRAK","updated_at":"2026-05-25T13:38:21.200524Z"}}